GW5789 Weather Reports


Display with metric or nautical units.
time (UTC)temp
F
wind
direction
speed
MPH
gust
MPH
rain 1hr
in
rain 24hr
in
rain mn
in
humidity
%
barometer
mb
20260506214514 67 319 4.0 14.0 0.00 0.00 0.00 74 1012.5
20260506213019 68 194 4.0 12.0 0.00 0.00 0.00 73 1012.4
20260506211504 70 247 3.0 13.0 0.00 0.00 0.00 71 1012.2
20260506210010 71 331 5.0 13.0 0.00 0.00 0.00 71 1012.2
20260506204512 71 319 6.0 14.0 0.00 0.00 0.00 72 1012.0
20260506203018 71 302 4.0 13.0 0.00 0.00 0.00 74 1012.6
20260506201538 72 259 3.0 12.0 0.00 0.00 0.00 71 1012.8
20260506200009 74 196 4.0 12.0 0.00 0.00 0.00 74 1012.3
20260506194508 74 115 4.0 10.0 0.00 0.00 0.00 73 1011.9
20260506193016 76 296 5.0 15.0 0.00 0.00 0.00 72 1011.7
20260506191520 79 298 3.0 10.0 0.00 0.00 0.00 73 1011.8
20260506190026 77 319 1.0 7.0 0.00 0.00 0.00 74 1012.0
20260506184507 77 300 3.0 8.0 0.00 0.00 0.00 76 1011.9
20260506183014 76 351 2.0 8.0 0.00 0.00 0.00 76 1011.8
20260506181518 75 345 3.0 8.0 0.00 0.00 0.00 75 1012.2
20260506180024 74 34 2.0 8.0 0.00 0.00 0.00 79 1012.0
20260506174525 73 21 4.0 9.0 0.00 0.00 0.00 80 1012.2
20260506173013 71 348 4.0 8.0 0.00 0.00 0.00 81 1012.1
20260506171517 69 319 3.0 8.0 0.00 0.00 0.00 80 1012.4
20260506170021 69 352 5.0 11.0 0.00 0.00 0.00 85 1012.4
20260506164525 67 308 4.0 11.0 0.00 0.00 0.00 88 1012.6
20260506163019 66 330 4.0 10.0 0.00 0.00 0.00 88 1013.1
20260506161517 67 330 4.0 13.0 0.00 0.00 0.00 87 1013.3
20260506160023 72 241 4.0 11.0 0.00 0.00 0.00 87 1013.0
20260506154536 75 326 1.0 3.0 0.00 0.00 0.00 88 1012.7
20260506153009 75 334 2.0 3.0 0.00 0.00 0.00 87 1012.5
20260506151514 76 347 0.0 3.0 0.00 0.00 0.00 87 1012.0
20260506150020 76 71 0.0 4.0 0.00 0.00 0.00 87 1011.6
20260506144522 76 53 1.0 2.0 0.00 0.00 0.00 87 1011.3
20260506143013 76 98 2.0 4.0 0.00 0.00 0.00 87 1011.0
20260506141511 75 16 1.0 3.0 0.00 0.00 0.00 89 1010.8
20260506140022 75 44 0.0 2.0 0.00 0.00 0.00 89 1011.3
20260506134520 75 84 0.0 4.0 0.00 0.00 0.00 90 1010.2
20260506133026 74 76 2.0 4.0 0.00 0.00 0.00 91 1010.2
20260506131508 74 10 1.0 5.0 0.00 0.00 0.00 92 1010.3
20260506130016 73 66 1.0 6.0 0.00 0.00 0.00 92 1010.1
20260506124519 73 31 1.0 5.0 0.00 0.00 0.00 92 1009.9
20260506123024 73 46 0.0 3.0 0.00 0.00 0.00 92 1009.9
20260506121528 73 42 0.0 2.0 0.00 0.00 0.00 92 1010.1
20260506120014 73 42 1.0 2.0 0.00 0.00 0.00 92 1010.0
20260506114518 73 26 0.0 2.0 0.00 0.00 0.00 91 1009.9
20260506113025 74 26 0.0 2.0 0.00 0.00 0.00 90 1009.9
20260506111528 74 37 0.0 2.0 0.00 0.00 0.00 90 1009.9
20260506110027 74 78 0.0 2.0 0.00 0.00 0.00 89 1009.7
20260506104515 74 78 1.0 6.0 0.00 0.00 0.00 89 1009.5
20260506103022 74 103 2.0 7.0 0.00 0.00 0.00 89 1009.3
20260506101503 74 87 3.0 6.0 0.00 0.00 0.00 89 1009.1
20260506100011 74 65 3.0 7.0 0.00 0.00 0.00 89 1009.1
20260506094513 74 123 2.0 6.0 0.00 0.00 0.00 89 1009.0
20260506093033 74 96 2.0 8.0 0.00 0.00 0.00 89 1008.7
20260506091505 74 109 3.0 9.0 0.00 0.00 0.00 88 1008.7
20260506090009 74 127 4.0 10.0 0.00 0.00 0.00 88 1008.5
20260506084516 74 109 3.0 6.0 0.00 0.00 0.00 89 1008.6
20260506083019 74 95 3.0 8.0 0.00 0.00 0.00 89 1008.6
20260506081524 74 21 4.0 11.0 0.00 0.00 0.00 89 1008.6
20260506073016 75 72 4.0 9.0 0.00 0.00 0.00 88 1009.0
20260506071519 75 110 3.0 13.0 0.00 0.00 0.00 88 1009.2
20260506061518 75 103 4.0 19.0 0.00 0.00 0.00 87 1009.2
20260506044527 76 98 5.0 14.0 0.00 0.00 0.00 86 1009.3
20260506043008 76 88 2.0 7.0 0.00 0.00 0.00 86 1009.4
20260506041514 76 55 3.0 9.0 0.00 0.00 0.00 86 1009.1
20260506040021 76 80 3.0 8.0 0.00 0.00 0.00 86 1009.0
20260506034524 76 82 2.0 8.0 0.00 0.00 0.00 85 1008.8
20260506033025 76 65 1.0 6.0 0.00 0.00 0.00 85 1008.7
20260506031514 76 54 2.0 8.0 0.00 0.00 0.00 85 1008.5
20260506030018 76 88 1.0 6.0 0.00 0.00 0.00 84 1008.2
20260506024525 76 11 1.0 7.0 0.00 0.00 0.00 83 1008.2
20260506023024 77 126 2.0 6.0 0.00 0.00 0.00 82 1007.8
20260506021526 77 92 2.0 6.0 0.00 0.00 0.00 82 1007.6
20260506020030 77 43 1.0 4.0 0.00 0.00 0.00 81 1007.1
20260506014520 77 63 1.0 4.0 0.00 0.00 0.00 81 1007.1
20260506013024 78 49 1.0 3.0 0.00 0.00 0.00 80 1007.0
20260506011508 78 63 1.0 3.0 0.00 0.00 0.00 80 1007.1
20260506010017 79 65 0.0 2.0 0.00 0.00 0.00 78 1007.2
20260506004524 80 81 0.0 2.0 0.00 0.00 0.00 76 1007.1
20260506003004 81 98 1.0 4.0 0.00 0.00 0.00 74 1007.0
20260506001504 82 92 0.0 3.0 0.00 0.00 0.00 73 1007.0
20260506000012 82 80 2.0 7.0 0.00 0.00 0.00 72 1006.8
20260505234516 82 89 2.0 9.0 0.00 0.00 0.00 70 1006.7
20260505233004 82 104 4.0 9.0 0.00 0.00 0.00 71 1006.6
20260505231507 82 57 3.0 12.0 0.00 0.00 0.00 70 1006.6
20260505230016 83 119 3.0 10.0 0.00 0.00 0.00 69 1006.4
20260505224513 83 44 5.0 14.0 0.00 0.00 0.00 68 1006.6
20260505223017 83 87 4.0 12.0 0.00 0.00 0.00 68 1006.5
20260505221504 84 112 4.0 10.0 0.00 0.00 0.00 68 1006.4
20260505220006 84 80 4.0 11.0 0.00 0.00 0.00 67 1006.5